This is the latest recevied weather packets stored in our database for station/object W7TRD. If no packets are shown the sender has not sent any weather packets the latest 10 day(s).
| Time | Temp. | Humidity | Pressure | Rain* | Wind** | Luminosity | Snow |
|---|---|---|---|---|---|---|---|
| 1778033706 | 17.78° C | 69% | 1016.2 hPa | 0 mm | - | 65 W/m² | - |
| 1778033403 | 18.33° C | 68% | 1016.1 hPa | 0 mm | - | 70 W/m² | - |
| 1778033101 | 18.33° C | 68% | 1015.9 hPa | 0 mm | - | 77 W/m² | - |
| 1778032495 | 18.33° C | 68% | 1015.9 hPa | 0 mm | - | 106 W/m² | - |
| 1778031889 | 18.33° C | 68% | 1016.2 hPa | 0 mm | - | 156 W/m² | - |
| 1778031283 | 18.33° C | 68% | 1016.3 hPa | 0 mm | - | 112 W/m² | - |
| 1778030979 | 17.78° C | 69% | 1016 hPa | 0 mm | - | 155 W/m² | - |
| 1778030676 | 18.33° C | 69% | 1016.2 hPa | 0 mm | - | 142 W/m² | - |
| 1778030373 | 18.33° C | 69% | 1016.2 hPa | 0 mm | - | 120 W/m² | - |
| 1778029767 | 17.78° C | 69% | 1016.2 hPa | 0 mm | - | 162 W/m² | - |
| 1778029466 | 17.78° C | 72% | 1016.4 hPa | 0 mm | - | 196 W/m² | - |
| 1778028860 | 17.22° C | 72% | 1016.3 hPa | 0 mm | - | 109 W/m² | - |
| 1778028253 | 17.22° C | 72% | 1016.5 hPa | 0 mm | - | 120 W/m² | - |
| 1778027645 | 17.22° C | 73% | 1016.4 hPa | 0 mm | - | 118 W/m² | - |
| 1778027342 | 16.67° C | 73% | 1016.4 hPa | 0 mm | - | 114 W/m² | - |
| 1778027038 | 17.22° C | 73% | 1016.2 hPa | 0 mm | - | 115 W/m² | - |
| 1778025522 | 17.22° C | 73% | 1016.4 hPa | 0 mm | - | 130 W/m² | - |
| 1778024009 | 17.22° C | 73% | 1016.6 hPa | 0 mm | - | 141 W/m² | - |
| 1778023706 | 17.22° C | 73% | 1016.8 hPa | 0 mm | - | 146 W/m² | - |
| 1778023404 | 17.22° C | 74% | 1016.9 hPa | 0 mm | - | 144 W/m² | - |
| 1778020979 | 17.22° C | 72% | 1016.9 hPa | 0 mm | - | 199 W/m² | - |
| 1778020676 | 17.22° C | 73% | 1017.1 hPa | 0 mm | - | 205 W/m² | - |
| 1778020373 | 17.22° C | 73% | 1017.1 hPa | 0 mm | - | 211 W/m² | - |
| 1778020069 | 17.78° C | 73% | 1017.1 hPa | 0 mm | - | 212 W/m² | - |
| 1778019766 | 17.78° C | 72% | 1017 hPa | 0 mm | - | 223 W/m² | - |
* Rain latest hour (hover to see other rain measurements)
** Current wind speed in m/s (hover to see current wind gust speed)